Location: Cahas Mountain Overlook
(37.0833°N, 80.1000°W)
Time: 22:34:40
(UTC-05:00)

Explorer 11/Cluster Stage 4 - Visible Passes

Search period start: 22 January 2022 00:00
Search period end: 01 February 2022 00:00
Orbit: 467 x 1255 km, 28.8° (Epoch: 22 January)

Date Brightness Start Highest point End Pass type
(mag) Time Alt. Az. Time Alt. Az. Time Alt. Az.
22 Jan 7.5 05:23:28 23° S 05:23:34 23° S 05:27:00 10° ESE visible
23 Jan 7.7 05:12:57 22° SSE 05:12:57 22° SSE 05:15:33 10° ESE visible
23 Jan 7.8 06:56:36 10° WSW 07:00:01 25° S 07:03:58 10° SE visible
24 Jan 8.1 05:02:25 18° SE 05:02:25 18° SE 05:04:09 10° ESE visible
24 Jan 7.8 06:45:31 10° WSW 06:48:41 22° S 06:52:17 10° SE visible
25 Jan 8.4 04:51:52 14° SE 04:51:52 14° SE 04:52:44 10° ESE visible
25 Jan 7.8 06:34:27 10° WSW 06:37:21 20° S 06:40:34 10° SE visible
26 Jan 8.8 04:41:18 10° SE 04:41:18 10° SE 04:41:20 10° SE visible
26 Jan 7.8 06:23:26 10° SW 06:26:02 17° S 06:28:50 10° SSE visible
27 Jan 7.8 06:12:50 11° SW 06:14:42 15° SSW 06:17:02 10° SSE visible
28 Jan 7.9 06:02:17 12° SSW 06:03:22 13° SSW 06:05:08 10° SSE visible
29 Jan 8.0 05:51:44 11° SSW 05:52:01 11° SSW 05:52:56 10° S visible
